Weather History for Covington, KY

Change the Weather History Date:

Thursday, January 3, 2013

  Actual Average Record
Temperature  
Mean Temperature 24 °F 31 °F  
Max Temperature 35 °F 39 °F 67 °F (2004)
Min Temperature 12 °F 23 °F -10 °F (1879)
Degree Days  
Heating Degree Days 41 34  
Month to date heating degree days 118 102  
Since 1 July heating degree days 1984 2021  
Cooling Degree Days 0 0  
Month to date cooling degree days 0 0  
Year to date cooling degree days 0 0  
Moisture  
Dew Point 17 °F    
Average Humidity 67    
Maximum Humidity 88    
Minimum Humidity 46    
Precipitation  
Precipitation 0.00 in 0.10 in 3.23 in (2000)
Month to date precipitation 0.01 0.31  
Year to date precipitation 0.01 0.31  
Snow  
Snow 0.00 in 0.10 in 5.50 in (1911)
Month to date snowfall 0.2 0.5  
Since 1 July snowfall 7.8 6.1  
Snow Depth 1.00 in    
Sea Level Pressure  
Sea Level Pressure 30.27 in    
Wind  
Wind Speed 6 mph (WSW)    
Max Wind Speed 18 mph    
Max Gust Speed 23 mph    
Visibility 10 miles    
Events      
T = Trace of Precipitation, MM = Missing Value Source: NWS Daily Summary

Daily Weather History Graph

Daily Weather History Graph

Search for Another Location

Airport:

Trip Planner

Search our weather history database for the weather conditions in past years. The results will help you decide how hot, cold, wet, or windy it might be!

Date:

Astronomy

Jan. 03, 2013 Rise Set
Actual Time 7:57 AM EST 5:28 PM EST
Civil Twilight 7:28 AM EST 5:58 PM EST
Nautical Twilight 6:54 AM EST 6:32 PM EST
Astronomical Twilight 6:22 AM EST 7:04 PM EST
Moon No Moon Rise 11:12 AM EST (1/3)
Length of Visible Light 10h 30m
Length of Day
9h 30m
Waning Gibbous, 65% of the Moon is Illuminated
Jan 3
Waning Gibbous
Jan 4
Last Quarter
Jan 11
New
Jan 18
First Quarter
Jan 26
Full

Hourly Weather History & Observations

Time (EST) Temp. Windchill Dew Point Humidity Pressure Visibility Wind Dir Wind Speed Gust Speed Precip Events Conditions
12:52 AM 19.9 °F - 10.9 °F 68% 30.24 in 10.0 mi Calm Calm - N/A   Clear
1:52 AM 17.6 °F - 12.2 °F 79% 30.21 in 10.0 mi Calm Calm - N/A   Partly Cloudy
2:52 AM 17.1 °F - 10.9 °F 77% 30.24 in 10.0 mi Calm Calm - N/A   Partly Cloudy
3:52 AM 15.1 °F - 12.0 °F 88% 30.22 in 9.0 mi Calm Calm - N/A   Partly Cloudy
4:52 AM 15.1 °F - 12.0 °F 88% 30.24 in 8.0 mi Calm Calm - N/A   Scattered Clouds
5:52 AM 15.1 °F 9.4 °F 12.9 °F 91% 30.25 in 7.0 mi SSW 3.5 mph - N/A   Partly Cloudy
6:52 AM 15.1 °F - 12.9 °F 91% 30.26 in 7.0 mi Calm Calm - N/A   Clear
7:52 AM 17.1 °F 10.0 °F 12.9 °F 84% 30.27 in 10.0 mi SSW 4.6 mph - N/A   Clear
8:52 AM 19.0 °F 13.9 °F 15.1 °F 85% 30.27 in 10.0 mi SSW 3.5 mph - N/A   Clear
9:52 AM 25.0 °F 18.1 °F 15.1 °F 66% 30.27 in 10.0 mi WSW 5.8 mph - N/A   Clear
10:52 AM 28.9 °F 20.4 °F 10.9 °F 47% 30.28 in 10.0 mi WSW 9.2 mph - N/A   Clear
11:52 AM 30.9 °F 22.8 °F 12.9 °F 47% 30.26 in 10.0 mi WSW 9.2 mph - N/A   Clear
12:52 PM 33.1 °F 25.5 °F 16.0 °F 50% 30.25 in 10.0 mi SW 9.2 mph - N/A   Clear
1:52 PM 34.0 °F 23.8 °F 19.9 °F 56% 30.24 in 10.0 mi West 16.1 mph 20.7 mph N/A   Mostly Cloudy
2:52 PM 33.1 °F 23.4 °F 21.0 °F 61% 30.25 in 10.0 mi West 13.8 mph - N/A   Scattered Clouds
3:52 PM 34.0 °F 24.2 °F 21.0 °F 59% 30.28 in 10.0 mi West 15.0 mph - N/A   Partly Cloudy
4:52 PM 33.1 °F 26.1 °F 19.9 °F 59% 30.28 in 10.0 mi West 8.1 mph - N/A   Scattered Clouds
5:52 PM 32.0 °F 24.2 °F 19.9 °F 61% 30.30 in 10.0 mi West 9.2 mph - N/A   Mostly Cloudy
6:52 PM 32.0 °F 26.4 °F 21.0 °F 64% 30.32 in 10.0 mi WSW 5.8 mph - N/A   Overcast
7:52 PM 32.0 °F 25.6 °F 21.0 °F 64% 30.32 in 10.0 mi WSW 6.9 mph - N/A   Overcast
8:52 PM 32.0 °F 24.8 °F 21.9 °F 66% 30.32 in 10.0 mi West 8.1 mph - N/A   Scattered Clouds
9:52 PM 30.9 °F 24.3 °F 21.9 °F 69% 30.33 in 10.0 mi West 6.9 mph - N/A   Overcast
10:09 PM 30.2 °F 20.8 °F 23.0 °F 75% 30.31 in 10.0 mi West 11.5 mph - N/A   Overcast
10:52 PM 30.0 °F 20.0 °F 23.0 °F 75% 30.34 in 10.0 mi West 12.7 mph - N/A   Overcast
11:52 PM 30.0 °F 23.2 °F 23.0 °F 75% 30.34 in 10.0 mi SW 6.9 mph - N/A   Overcast